Regional Weather Roundup
Issued by NWS Green Bay, WI

Home | Current Version | Previous Version | Graphics & Text | Print | Product List | Glossary Off
Versions: 1 2 3 4 5 6 7 8 9 10 11 12 13 14 15 16 17 18 19 20 21 22 23 24 25 26 27 28 29 30 31 32 33 34 35 36 37 38 39 40 41 42 43 44 45 46 47 48 49 50

000
ASUS43 KGRB 261610
RWRGRB

NORTH-CENTRAL AND NORTHEAST WISCONSIN REGIONAL WEATHER ROUNDUP
NATIONAL WEATHER SERVICE GREEN BAY WI
1100 AM CDT THU MAR 26 2015

WIZ005-009-010>012-018-019-261700-
NORTH CENTRAL WISCONSIN

CITY           SKY/WX    TMP DP  RH WIND       PRES   REMARKS
IRONWOOD       CLOUDY    19  16  86 N12       30.02S WCI   7
MANITOWISH WTR LGT SNOW  21  14  76 N10       29.98R WCI   9
ARBOR VITAE    LGT SNOW  22  15  72 N16       29.97R WCI   9
EAGLE RIVER    FLURRIES  22  13  67 N16       29.95R WCI   8
LAND O LAKES   LGT SNOW  21  15  78 N13G18    29.96R WCI   9
RHINELANDER    CLOUDY    24  14  65 NW12      29.96R
PHILLIPS       FLURRIES  22  13  68 N8        30.00S
ANTIGO         CLOUDY    25  17  72 NW13G22   29.94S
TOMAHAWK       CLOUDY    25  13  61 NW13G21   29.98S
MERRILL        CLOUDY    26  16  65 N13G18    29.98R
$$

WIZ013-073-261700-
NORTHEAST WISCONSIN

CITY           SKY/WX    TMP DP  RH WIND       PRES   REMARKS
IRON MOUNTAIN  CLOUDY    25  16  68 N14       29.93R
MARINETTE      CLOUDY    32  18  55 NW12G21   29.93R
OCONTO         CLOUDY    32  19  59 NW10      29.94R
$$

WIZ017-030-035>037-045-261700-
CENTRAL WISCONSIN

CITY           SKY/WX    TMP DP  RH WIND       PRES   REMARKS
MEDFORD        FLURRIES  25  16  70 NW14      29.99R
WAUSAU         FLURRIES  27  17  66 N12G21    29.97R
MOSINEE        CLOUDY    28  19  69 NW18      29.98R
MARSHFIELD     CLOUDY    29  20  69 N18       29.99R
WISC RAPIDS    CLOUDY    31  19  61 NW10G22   30.00R
STEVENS POINT  CLOUDY    28  17  63 N12G17    29.98S
WAUPACA        CLOUDY    34  21  59 NW9       29.97S
SHAWANO        CLOUDY    33  21  60 NW7       29.96R
CLINTONVILLE   CLOUDY    32  19  59 NW15      29.96R
$$

WIZ038-039-048-051-261700-
FOX VALLEY

CITY           SKY/WX    TMP DP  RH WIND       PRES   REMARKS
NWS GREEN BAY  CLOUDY    33  23  66 NW10      29.95R
APPLETON       CLOUDY    32  19  59 NW13      29.96R
OSHKOSH        CLOUDY    33  21  61 NW16G25   29.96R
FOND DU LAC    CLOUDY    34  22  61 NW15      29.96R
$$

WIZ022-050-052-261700-
EAST CENTRAL WISCONSIN

CITY           SKY/WX    TMP DP  RH WIND       PRES   REMARKS
STURGEON BAY   CLOUDY    32  19  59 NW15      29.94S
MANITOWOC      LGT RAIN  34  23  64 NW15      29.94R
SHEBOYGAN      CLOUDY    35  23  61 NW13      29.94R
$$

LMZ563-521-522-541>543-261700-
LAKESHORE

STATION/POSITION TIME  TEMP    WIND        PRES    VSBY  WAVE
                       AIR SEA DIR/SP/G                  HT/PER
                 (UTC) (F)     (DEG/KT/KT) (MB)    (MI)  (FT/S)
SHEBOYGAN LKSHOR 1600   36     290/ 12/ 15 1014.7R
KEWAUNEE LKSHORE 1600   33     320/ 10/ 16 1012.7R
NORTHPORT PIER   1600   30     340/ 22/ 25 1012.9S
SISTER BAY LKSHO 1600   31     350/ 22/ 25   N/A
STURGEON BAY CG  1500   34     310/  8     1013.1      6   1
CHAMBERS ISLAND  1600   30     320/ 19/ 23 1013.9R
MENOMINEE LKSHOR 1600   33     290/ 12     1014.1R
$$


USA.gov is the U.S. government's official web portal to all federal, state and local government web resources and services.